CW3175 Weather Reports


time (UTC)temp
F
wind
direction
speed
knots
gust
knots
rain 1hr
in
rain 24hr
in
rain mn
in
humidity
%
barometer
mb
20140731011817 66 119 0.0 3.5 0.00 0.00 0.00 85 1014.2
20140731010303 66 119 0.0 2.6 0.00 0.00 0.00 83 1014.1
20140731004755 67 121 0.0 3.5 0.00 0.00 0.00 82 1014.1
20140731003245 67 123 0.0 3.5 0.00 0.00 0.00 81 1014.1
20140731001735 67 103 0.9 3.5 0.00 0.00 0.00 79 1014.2
20140731000223 68 94 0.9 3.5 0.00 0.00 0.00 79 1014.2
20140730234707 67 71 0.9 4.3 0.00 0.00 0.00 80 1014.1
20140730233205 68 75 0.9 4.3 0.00 0.00 0.00 77 1014.2
20140730231659 68 110 1.7 5.2 0.00 0.00 0.00 75 1014.2
20140730230157 68 65 2.6 8.7 0.00 0.00 0.00 74 1014.2
20140730224651 69 19 2.6 8.7 0.00 0.00 0.00 71 1014.3
20140730223152 70 42 0.9 5.2 0.00 0.00 0.00 72 1014.3
20140730221650 69 120 3.5 8.7 0.00 0.00 0.00 74 1014.4
20140730220149 69 57 2.6 8.7 0.00 0.00 0.00 74 1014.6
20140730214644 69 102 1.7 10.4 0.00 0.00 0.00 72 1014.6
20140730213143 69 14 3.5 9.6 0.00 0.00 0.00 73 1014.7
20140730211639 69 47 3.5 11.3 0.00 0.01 0.00 73 1014.5
20140730210139 70 50 3.5 10.4 0.00 0.01 0.00 73 1014.6
20140730204640 70 43 4.3 11.3 0.00 0.01 0.00 73 1014.8
20140730203140 70 96 2.6 11.3 0.00 0.01 0.00 73 1014.8
20140730201639 69 27 5.2 13.0 0.00 0.01 0.00 73 1014.6
20140730200141 69 22 4.3 12.2 0.00 0.01 0.00 74 1014.8
20140730194639 70 34 3.5 11.3 0.00 0.01 0.00 74 1014.7
20140730193139 70 52 2.6 9.6 0.00 0.01 0.00 72 1014.6
20140730191641 70 16 3.5 10.4 0.00 0.01 0.00 73 1014.6
20140730190137 71 0 2.6 8.7 0.00 0.01 0.00 72 1014.6
20140730184636 70 46 2.6 7.8 0.00 0.01 0.00 72 1014.6
20140730183134 72 42 2.6 9.6 0.00 0.01 0.00 68 1014.6
20140730181634 73 133 1.7 6.1 0.00 0.01 0.00 67 1014.6
20140730180134 73 122 1.7 6.1 0.00 0.01 0.00 64 1014.6
20140730174631 73 80 1.7 7.8 0.00 0.01 0.00 64 1014.7
20140730173116 73 147 1.7 6.1 0.00 0.01 0.00 62 1014.7
20140730171608 74 105 0.9 5.2 0.00 0.01 0.00 60 1014.9
20140730170106 74 91 0.9 4.3 0.00 0.01 0.00 59 1015.0
20140730164532 73 121 0.9 6.1 0.00 0.01 0.00 60 1015.0
20140730163030 74 136 0.9 5.2 0.00 0.01 0.00 59 1015.1
20140730161531 74 98 1.7 5.2 0.00 0.01 0.00 59 1015.1
20140730160028 74 116 0.9 4.3 0.00 0.01 0.00 59 1015.1
20140730154521 74 133 0.9 4.3 0.00 0.01 0.00 59 1014.9
20140730153018 75 30 0.0 3.5 0.00 0.01 0.00 54 1015.0
20140730151502 74 26 0.9 5.2 0.00 0.01 0.00 52 1014.9
20140730150000 74 285 0.0 3.5 0.00 0.01 0.00 53 1014.7
20140730144450 73 337 0.9 6.1 0.00 0.01 0.00 56 1014.8
20140730142948 73 310 0.9 6.1 0.00 0.01 0.00 56 1014.8
20140730141449 72 327 0.9 7.8 0.00 0.01 0.00 58 1014.7
20140730135941 71 339 0.9 7.8 0.00 0.01 0.00 59 1014.7
20140730134439 71 292 0.9 6.1 0.00 0.01 0.00 60 1014.6
20140730132938 70 334 0.9 6.1 0.00 0.01 0.00 62 1014.7
20140730131436 69 350 0.9 8.7 0.00 0.01 0.00 64 1014.7
20140730125915 68 284 0.0 4.3 0.00 0.01 0.00 67 1014.6
20140730124414 67 310 0.0 4.3 0.00 0.01 0.00 70 1014.3
20140730122908 66 286 0.0 3.5 0.00 0.01 0.00 73 1014.5
20140730121359 65 296 0.0 1.7 0.00 0.01 0.00 76 1014.6
20140730115846 65 286 0.0 0.0 0.00 0.01 0.00 77 1014.3
20140730114334 64 286 0.0 0.0 0.00 0.01 0.00 78 1014.3
20140730112834 64 286 0.0 0.0 0.00 0.01 0.00 79 1014.4
20140730111335 63 286 0.0 1.7 0.00 0.01 0.00 80 1014.3
20140730105833 63 286 0.0 3.5 0.00 0.01 0.00 80 1014.2
20140730104325 63 285 0.0 0.0 0.00 0.01 0.00 82 1014.2
20140730102813 63 286 0.0 2.6 0.00 0.01 0.00 82 1014.1
20140730101305 62 284 0.0 0.0 0.00 0.01 0.00 82 1014.2
20140730095755 62 284 0.0 2.6 0.00 0.01 0.00 82 1013.9
20140730094247 62 284 0.0 0.9 0.00 0.01 0.00 82 1013.9
20140730092733 62 284 0.0 0.0 0.00 0.01 0.00 82 1013.9
20140730091231 63 284 0.0 0.9 0.00 0.01 0.00 81 1014.0
20140730085717 63 284 0.0 0.9 0.00 0.01 0.00 81 1013.7
20140730084157 63 284 0.0 0.0 0.00 0.01 0.00 80 1013.7
20140730082638 63 284 0.0 0.9 0.00 0.01 0.00 80 1013.7
20140730081135 63 284 0.0 0.9 0.00 0.01 0.00 80 1013.7
20140730075627 63 284 0.0 3.5 0.00 0.01 0.00 79 1013.8
20140730074107 64 288 0.0 0.9 0.00 0.01 0.00 79 1013.7
20140730072608 64 288 0.0 3.5 0.00 0.01 0.00 78 1013.7
20140730071102 64 28 0.0 1.7 0.00 0.01 0.00 78 1013.7
20140730065532 64 28 0.0 1.7 0.00 0.01 0.00 77 1013.7
20140730064002 65 28 0.0 0.9 0.00 0.01 0.00 78 1013.7
20140730062456 65 28 0.0 0.9 0.00 0.01 0.00 78 1013.6
20140730060952 65 28 0.0 0.0 0.00 0.01 0.00 78 1013.8
20140730055439 65 28 0.0 1.7 0.00 0.01 0.00 78 1013.7
20140730053940 65 28 0.0 1.7 0.00 0.01 0.00 77 1013.6
20140730052430 66 28 0.0 0.0 0.00 0.01 0.00 78 1013.6
20140730050928 66 28 0.0 3.5 0.00 0.01 0.00 77 1013.6
20140730045428 66 28 0.0 1.7 0.00 0.01 0.01 75 1013.6
20140730043858 67 28 0.0 2.6 0.00 0.01 0.01 72 1013.6
20140730042337 67 28 0.9 7.0 0.00 0.01 0.01 70 1014.1
20140730040824 67 351 5.2 12.2 0.00 0.01 0.01 68 1014.0
20140730035320 68 21 7.8 17.4 0.00 0.01 0.01 64 1014.2
20140730033820 70 26 7.8 15.6 0.00 0.01 0.01 60 1013.4
20140730032319 71 236 0.0 2.6 0.00 0.01 0.01 62 1013.3
20140730030810 71 170 0.0 0.9 0.00 0.01 0.01 63 1013.3
20140730025309 71 170 0.0 0.9 0.00 0.01 0.01 64 1013.3
20140730023809 71 169 0.0 3.5 0.00 0.01 0.01 65 1013.3
20140730022257 71 167 0.0 2.6 0.00 0.01 0.01 66 1013.3
20140730020757 71 167 0.9 4.3 0.00 0.01 0.01 64 1013.1
20140730015222 71 159 0.0 0.9 0.00 0.01 0.01 62 1013.0
20140730013654 71 159 0.9 4.3 0.00 0.01 0.01 61 1013.0
20140730012132 72 130 0.9 5.2 0.00 0.01 0.01 57 1013.1